#timestamp,LO_Frequency,Hit,StdDev 
1507892415.7,286046999.6,N
1507892435.5,286047000.6,N
1507892455.4,286046998.1,N
1507892475.2,286047001.2,N
1507892495.0,286047000.9,N
1507892495.9,286047000.9,N
1507892515.8,286046998.5,N
1507892535.6,286047000.8,N
1507892555.5,286047001.2,N
1507892575.3,286047001.0,N
1507892595.1,286046998.6,N
1507892615.9,286046998.6,N
1507892635.7,286047000.8,N
1507892655.5,286047000.1,N
1507892675.4,286047000.2,N
1507892695.2,286047002.8,N
1507892715.1,286046998.6,N
1507892716.0,286046998.6,N
1507892735.8,286046998.6,N
1507892755.6,286047000.8,N
1507892775.5,286046998.5,N
1507892795.3,286046999.3,N
1507892815.2,286047000.9,N
1507892835.9,286047001.2,N
1507892855.7,286046999.8,N
1507892875.6,286047002.7,N
1507892895.4,286047002.3,N
1507892915.2,286047000.1,N
1507892935.1,286047000.3,N
1507892936.0,286047000.3,N
1507892955.8,286047002.8,N
1507892975.7,286047002.6,N
1507892995.5,286047001.2,N
1507893015.3,286047000.3,N
1507893035.2,286047002.7,N
1507893055.0,286047000.0,N
1507893055.9,286047000.0,N
1507893075.7,286046999.5,N
1507893095.6,286046996.6,N
1507893115.4,286047000.8,N
1507893135.3,286047000.8,N
1507893155.1,286046998.7,N
1507893175.8,286047000.8,N
1507893195.7,286047000.9,N
1507893215.5,286047000.5,N
1507893235.4,286047001.1,N
1507893255.2,286046998.9,N
1507893275.0,286046999.6,N
1507893275.9,286046999.6,N
1507893295.8,286046998.9,N
1507893315.6,286047000.6,N
1507893335.4,286047000.3,N
1507893355.3,286047000.8,N
1507893375.1,286046998.4,N
1507893395.9,286046997.2,N
1507893415.7,286046996.6,N
1507893435.5,286046997.1,N
1507893455.4,286046999.1,N
1507893475.2,286046997.7,N
1507893495.0,286046996.0,N
1507893495.9,286046996.0,N
1507893515.8,286046995.9,N
1507893535.6,286046996.3,N
1507893555.5,286046996.4,N
1507893575.3,286046996.2,N
1507893595.1,286046996.4,N
1507893615.9,286046994.0,Y
1507893635.7,286046996.3,P
1507893655.6,286046994.1,P
1507893675.4,286046993.5,P
1507893695.2,286046993.3,Y
1507893715.1,286046999.7,P
1507893716.0,286046999.7,N
1507893735.8,286047001.1,N
1507893755.6,286047000.8,N
1507893775.5,286046998.7,N
1507893795.3,286047000.3,N
1507893815.2,286047002.5,N
1507893835.9,286047002.1,N
1507893855.7,286047001.6,N
1507893875.6,286047001.3,N
1507893895.4,286047001.4,N
1507893915.2,286047001.8,N
1507893935.1,286047002.6,N
1507893936.0,286047002.6,N
1507893955.8,286047002.1,N
1507893975.7,286047001.5,N
1507893995.5,286047002.1,N
1507894015.3,286047000.0,N
1507894035.2,286047002.8,N
1507894055.0,286047000.4,N
1507894055.9,286047000.4,N
1507894075.7,286046999.8,N
1507894095.6,286046999.7,N
1507894115.4,286047002.4,N
1507894135.3,286047001.4,N
1507894155.1,286046999.7,N
1507894156.0,286046999.7,N
1507894175.8,286047002.3,N
1507894195.7,286047002.7,N
1507894215.5,286047000.0,N
1507894235.4,286047000.3,N
1507894255.2,286046998.2,N
1507894275.0,286047001.0,N
1507894275.9,286047001.0,N
1507894295.8,286047000.2,N
1507894315.6,286047004.0,Y
1507894335.4,286047002.5,P
1507894355.3,286047002.6,P
1507894375.1,286047002.0,N
1507894395.9,286047001.3,N
1507894415.7,286047002.3,Y
1507894435.5,286047001.2,P
1507894455.4,286047001.0,N
1507894475.2,286047002.2,P
1507894495.1,286047002.4,Y
1507894496.0,286047002.4,P
1507894515.8,286047000.3,N
1507894535.6,286046998.2,N
1507894555.5,286046997.4,N
1507894575.3,286046995.7,N
1507894595.1,286046995.6,N
1507894615.9,286046995.6,N
1507894635.7,286046995.0,N
1507894655.6,286046997.1,N
1507894675.4,286046999.6,N
1507894695.2,286046997.7,N
1507894715.1,286046995.0,N
1507894716.0,286046995.0,N
1507894735.8,286046998.0,N
1507894755.6,286046996.8,N
1507894775.5,286046999.1,N
1507894795.3,286046995.0,N
1507894815.2,286046999.6,N
1507894835.9,286046996.5,N
1507894855.7,286046997.9,N
1507894875.6,286046998.3,N
1507894895.4,286046997.1,N
1507894915.2,286046996.5,N
1507894935.1,286046996.5,N
1507894936.0,286046996.5,N
1507894955.8,286046996.6,N
1507894975.7,286046997.9,N
1507894995.5,286046995.1,N
1507895015.3,286046994.9,N
1507895035.2,286046997.6,N
1507895055.0,286046997.3,N
1507895055.9,286046997.3,N
1507895075.8,286046999.5,N
1507895095.6,286046996.8,N
1507895115.4,286046996.6,N
1507895135.3,286046998.3,N
1507895155.1,286046999.1,N
1507895175.8,286046997.0,N
1507895195.7,286046997.3,N
1507895215.5,286046995.6,Y
1507895235.4,286046998.7,P
1507895255.2,286047000.0,N
1507895275.0,286047002.2,N
1507895275.9,286047002.2,N
1507895295.8,286047000.1,N
1507895315.6,286047002.7,N
1507895335.4,286047000.4,N
1507895355.3,286046999.4,N
1507895375.1,286046998.1,N
1507895395.9,286047001.0,N
1507895415.7,286047002.5,N
1507895435.5,286047000.4,N
1507895455.4,286047000.5,N
1507895475.2,286046999.8,N
1507895495.0,286047000.2,N
1507895496.0,286047000.2,N
1507895515.8,286047002.6,N
1507895535.6,286047002.8,N
1507895555.5,286046999.9,N
1507895575.3,286047000.3,N
1507895595.1,286046999.7,N
1507895615.9,286047001.5,N
1507895635.7,286047001.7,N
1507895655.6,286047002.3,N
1507895675.4,286047001.5,N
1507895695.2,286047001.9,N
1507895715.1,286047003.5,N
1507895716.0,286047003.5,N
1507895735.8,286047003.6,N
1507895755.6,286047003.6,N
1507895775.5,286047001.7,N
1507895795.3,286047001.3,N
1507895815.2,286047000.0,N
1507895835.9,286046998.5,N
1507895855.7,286046999.7,N
1507895875.6,286046999.8,N
1507895895.4,286047002.0,N
1507895915.2,286047004.3,N
1507895935.1,286047005.3,Y
1507895936.0,286047005.3,P
1507895955.8,286047003.6,N
1507895975.7,286047003.7,N
1507895995.5,286046999.7,N
